User: anonymous
Location: Unspecified
(0.0000°N, 0.0000°E)
Time: 09:18:18
(UTC+00:00)
Language:

USA 229 - Orbit

View from above orbital plane
View from above orbital plane
View from above satellite
View from above satellite

Ground track
Ground track

The orbit data is extracted from the following two-line orbital elements,

1 37386U 11014A   14196.86292735 0.00000000  00000-0  00000-0 0    00
2 37386  63.4405 211.5034 0030004 161.8512 198.1488 13.40650270    05
Epoch (UTC): 15 July 2014 20:42:36
Eccentricity: 0.0030004
inclination: 63.4405°
perigee height: 1084 km
apogee height: 1129 km
right ascension of ascending node: 211.5034°
argument of perigee: 161.8512°
revolutions per day: 13.40650270
mean anomaly at epoch: 198.1488°
orbit number at epoch: 0

The dashed part of the orbit path shows where the satellite is in the earth's shadow,  

DLR